Overview Statistics Trail Chart Weather Telemetry Raw packets
 

This is the latest recevied weather packets stored in our database for station/object KO4YAW. If no packets are shown the sender has not sent any weather packets the latest 10 day(s).

<< 20 21 22 23 24 25 26 >>
Time Temp. Humidity Pressure Rain* Wind** Luminosity Snow
1788195821 26.11° C 33% 1022.5 hPa 0 mm - 330 W/m² -
1788194921 25.56° C 33% 1022.5 hPa 0 mm - 241 W/m² -
1788194021 25° C 34% 1022.5 hPa 0 mm - 343 W/m² -
1788193121 24.44° C 37% 1022.4 hPa 0 mm - 291 W/m² -
1788192221 23.89° C 39% 1022.4 hPa 0 mm - 198 W/m² -
1788191321 23.89° C 40% 1022.3 hPa 0 mm - 192 W/m² -
1788190421 22.78° C 41% 1022.2 hPa 0 mm - 206 W/m² -
1788189521 22.22° C 43% 1022.2 hPa 0 mm - 130 W/m² -
1788188621 22.22° C 43% 1022.2 hPa 0 mm - 135 W/m² -
1788187721 22.22° C 44% 1022.1 hPa 0 mm - 102 W/m² -
1788186821 21.67° C 45% 1022.2 hPa 0 mm - 110 W/m² -
1788185921 20.56° C 48% 1021.9 hPa 0 mm - 164 W/m² -
1788185021 20° C 51% 1021.7 hPa 0 mm - 79 W/m² -
1788184121 19.44° C 53% 1021.7 hPa 0 mm - 75 W/m² -
1788183221 18.33° C 53% 1021.6 hPa 0 mm - 90 W/m² -
1788182321 17.78° C 56% 1021.4 hPa 0 mm - 115 W/m² -
1788181421 17.22° C 57% 1021.2 hPa 0 mm - 33 W/m² -
1788180521 17.22° C 58% 1020.9 hPa 0 mm - 16 W/m² -
1788179621 17.22° C 59% 1020.9 hPa 0 mm - 4 W/m² -
1788178721 17.22° C 58% 1020.6 hPa 0 mm - 0 W/m² -
1788177821 17.22° C 58% 1020.6 hPa 0 mm - 0 W/m² -
1788176921 17.22° C 57% 1020.5 hPa 0 mm - 0 W/m² -
1788176021 17.22° C 59% 1020.5 hPa 0 mm - 0 W/m² -
1788175121 17.22° C 59% 1020.3 hPa 0 mm - 0 W/m² -
1788174221 17.22° C 59% 1020.3 hPa 0 mm - 0 W/m² -

* Rain since midnight (hover to see other rain measurements)
** Current wind speed in m/s (hover to see current wind gust speed)